Regional Weather Roundup
Issued by NWS

Home | Current Version | Previous Version | Graphics & Text | Print | Product List | Glossary On
Versions: 1 2 3 4 5 6 7 8 9 10 11 12 13 14 15 16 17 18 19 20 21 22 23 24 25 26 27 28 29 30 31 32 33 34 35 36 37 38 39 40 41 42 43 44 45 46 47 48 49 50
000
ASUS43 KDTX 230710
RWRMI
MICHIGAN HOURLY REGIONAL WEATHER ROUNDUP
NATIONAL WEATHER SERVICE DETROIT/PONTIAC MI
200 AM EST THU NOV 23 2017

NOTE: "FAIR" INDICATES FEW OR NO CLOUDS BELOW 12,000 FEET WITH NO
SIGNIFICANT WEATHER AND/OR OBSTRUCTION TO VISIBILITY.

MIZ047>049-052>055-059>063-066>070-074>076-081>083-230800-
SOUTHEAST LOWER MICHIGAN

CITY           SKY/WX    TMP DP  RH WIND       PRES   REMARKS
ADRIAN         CLOUDY    27  22  81 SW7       30.18F WCI  19
ALMA           CLOUDY    31  25  79 S7        30.11F WCI  24
ANN ARBOR      CLOUDY    25  21  85 CALM      30.17S
BAD AXE        CLOUDY    28  19  67 SW7       30.13F WCI  21
CARO           CLOUDY    28  20  72 S6        30.13F WCI  22
DETROIT CITY   CLOUDY    29  20  69 SW6       30.18F WCI  23
DETROIT        CLOUDY    27  21  78 S7        30.19F WCI  19
FLINT          CLOUDY    29  19  66 S6        30.15F WCI  23
GROSSE ILE     CLOUDY    30  22  72 SW5       30.18S WCI  25
HILLSDALE      CLOUDY    30  21  69 S6        30.14F WCI  24
HOWELL         CLOUDY    28  22  76 S3        30.14F

CITY           SKY/WX    TMP DP  RH WIND       PRES   REMARKS
JACKSON        CLOUDY    30  21  69 SW5       30.16F WCI  25
LAMBERTVILLE   PTCLDY    31  22  68 SW6       30.19F WCI  25
LANSING        CLOUDY    30  22  72 S8        30.14F WCI  22
LAPEER         MOCLDY    28  20  73 S5        30.15F WCI  23
MASON          CLOUDY    31  23  73 S3        30.15F
MONROE         CLOUDY    31  22  68 SW5       30.18F WCI  26
MT. CLEMENS    CLOUDY    28  21  75 SW5       30.16F WCI  22
PONTIAC        PTCLDY    27  19  72 S3        30.15S
PORT HOPE        N/A     29  18  63 CALM      30.10F
PORT HURON     MOCLDY    27  19  74 S3        30.17F
TRI CITIES     CLOUDY    30  23  75 S8        30.13F WCI  22
MIDLAND        CLOUDY    31  23  73 S5        30.10F WCI  26
TROY           PTCLDY    30  19  64 CALM      30.19S
SAGINAW HB     CLOUDY    30  23  74 S8        30.13F WCI  23
$$
MIZ043>046-050>051-056>058-064>065-071>073-077>080-230800-
SOUTHWEST LOWER MICHIGAN

CITY           SKY/WX    TMP DP  RH WIND       PRES   REMARKS
BATTLE CREEK   CLOUDY    31  23  72 SW7       30.15F WCI  24
BENTON HARBOR  CLOUDY    31  18  58 S7        30.16F WCI  24
BIG RAPIDS     MOCLDY    29  23  77 SW5       30.07F WCI  24
COLDWATER      CLOUDY    31  23  72 SW5       30.16S WCI  26
FREMONT        CLOUDY    30  26  84 S3        30.09F
HOLLAND        PTCLDY    31  24  75 S6        30.13F WCI  25
GRAND RAPIDS   CLOUDY    32  24  72 S12       30.12F WCI  23
IONIA          CLOUDY    31  24  75 S8        30.11F WCI  24
KALAMAZOO      CLOUDY    31  19  61 SW7       30.16F WCI  24
LUDINGTON      CLOUDY    33  23  64 W13G18    30.07F WCI  24
MARSHALL       CLOUDY    30  22  73 SW5       30.15F WCI  25
MOUNT PLEASANT CLOUDY    31  23  71 S5        30.08F WCI  27
MUSKEGON       CLOUDY    36  24  62 W12G23    30.11F WCI  28
SOUTH HAVEN    CLOUDY    32  21  63 S6        30.15F WCI  27
$$
MIZ016>042-230800-
NORTHERN LOWER MICHIGAN

CITY           SKY/WX    TMP DP  RH WIND       PRES   REMARKS
ALPENA         MOCLDY    28  20  71 SW6       30.06F WCI  22
BEAVER ISLAND  PTCLDY    33  24  69 SW16G22   30.00F WCI  23
BELLAIRE       PTCLDY    30  24  79 SW3       30.04F
CADILLAC       CLOUDY    28  23  81 SW8       30.02F WCI  20
CHARLEVOIX     CLOUDY    32  25  73 SW9       30.04F WCI  25
FRANKFORT      CLOUDY    35  23  62 W12G20    30.04F WCI  27
GAYLORD        CLOUDY    25  18  74 SW10      30.00F WCI  15
GRAYLING       CLOUDY    28  20  74 SW6       30.03F WCI  21
HARBOR SPRINGS CLOUDY    30  23  75 SW9       30.01F WCI  21
HOUGHTON LAKE  CLOUDY    28  21  75 S12       30.04F WCI  18
MANISTEE       CLOUDY    33  24  69 W16       30.06F WCI  23
OSCODA         CLOUDY    30  18  61 SW9       30.07F WCI  21
PELLSTON       CLOUDY    29  21  72 S6        30.01F WCI  23
ROGERS CITY    CLOUDY    28  19  69 SW7       30.05S WCI  21
TRAVERSE CITY  PTCLDY    31  21  66 SW6       30.03F WCI  25
$$
MIZ007>008-015-230800-
EASTERN UPPER MICHIGAN

CITY           SKY/WX    TMP DP  RH WIND       PRES   REMARKS
KINROSS        CLOUDY    30  25  81 VRB3      29.98F
MACKINAC ISLAN CLOUDY    32  23  70 SW8       30.00S WCI  25
NEWBERRY       CLOUDY    27  21  79 W9        29.97F WCI  18
S. S. MARIE    CLOUDY    29  24  82 SW5       29.98F WCI  24
MUNISING         N/A     27  17  66 S9        29.97F WCI  18
$$
MIZ004>006-011>014-085-230800-
CENTRAL UPPER MICHIGAN

CITY           SKY/WX    TMP DP  RH WIND       PRES   REMARKS
MANISTIQUE     CLOUDY    28  14  55 W6        29.99F WCI  22
ESCANABA       CLOUDY    28  17  63 W12       30.00F WCI  18
MENOMINEE      CLOUDY    29  18  63 W7        30.03  WCI  22
SAWYER-GWINN   CLOUDY    25  16  67 SW8       29.95F WCI  16
$$
MIZ001>003-009>011-084-230800-
WESTERN UPPER MICHIGAN

CITY           SKY/WX    TMP DP  RH WIND       PRES   REMARKS
IRON MOUNTAIN  CLOUDY    26  15  63 SW9       29.96F WCI  17
HOUGHTON       CLOUDY    25  18  74 SW12      29.90F WCI  14
COPPER HARBOR    N/A     28  16  60 W6        29.91F WCI  22
IRONWOOD       CLOUDY    24  19  81 SW10      29.94F WCI  14
$$

ABBREVIATIONS USED IN REMARKS
   TC - TEMPERATURE IN CELSIUS
  WCI - WIND CHILL INDEX
   HX - HEAT INDEX
  VSB - VISIBILITY





USA.gov is the U.S. government's official web portal to all federal, state and local government web resources and services.